Location: Antin
(43.3330°N, 0.2804°E)
Time: 03:57:54
(UTC+00:00)

CZ-4 R/B - Pass Details

Date: 16 October 2021
Orbit: 531 x 595 km, 97.8° (Epoch: 02 December)

Event Time Altitude Azimuth Distance (km) Brightness Sun altitude
Rises 18:02:18 0° 141° (SE) 2,702 4.5 -9.5°
Reaches altitude 10° 18:04:34 10° 130° (SE) 1,824 3.5 -9.9°
Maximum altitude 18:08:01 30° 69° (ENE) 1,024 2.2 -10.6°
Drops below altitude 10° 18:11:33 10° 8° (N) 1,871 3.9 -11.2°
Sets 18:13:54 0° 358° (N) 2,785 4.9 -11.6°
